Location: Palombina Nuova
(43.6167°N, 13.4000°E)
Time: 21:54:54
(UTC+00:00)

H-2A R/B - Pass Details

Date: 17 February 2020
Orbit: 529 x 652 km, 98.3° (Epoch: 05 April)

Event Time Altitude Azimuth Distance (km) Brightness Sun altitude
Rises 03:41:25 0° 15° (NNE) 2,899 6.3 -26.2°
Reaches altitude 10° 03:43:36 10° 18° (NNE) 2,006 5.5 -25.8°
Maximum altitude 03:47:58 72° 102° (ESE) 674 2.8 -25.1°
Enters shadow 03:49:06 48° 171° (S) 837 3.1 -24.9°
